Time,TemperatureF,DewpointF,PressureIn,WindDirection,WindDirectionDegrees,WindSpeedMPH,WindSpeedGustMPH,Humidity,HourlyPrecipIn,Conditions,Clouds,dailyrainin,SoftwareType,DateUTC
2013-04-09 00:02:00,56.5,53.3,29.87,ENE,74,11.0,12.0,89,0.00,,,0.00,Wunderground v.1.15,2013-04-09 05:02:00,
2013-04-09 00:07:00,56.7,53.2,29.87,ENE,78,10.0,12.0,88,0.00,,,0.00,Wunderground v.1.15,2013-04-09 05:07:00,
2013-04-09 00:13:00,56.5,53.0,29.87,ENE,71,12.0,13.0,88,0.00,,,0.00,Wunderground v.1.15,2013-04-09 05:13:00,
2013-04-09 00:18:00,56.3,52.8,29.87,ENE,67,12.0,15.0,88,0.00,,,0.00,Wunderground v.1.15,2013-04-09 05:18:00,
2013-04-09 00:24:00,56.0,52.5,29.87,ENE,69,13.0,15.0,88,0.00,,,0.00,Wunderground v.1.15,2013-04-09 05:24:00,
2013-04-09 00:29:00,55.8,52.3,29.87,ENE,78,13.0,15.0,88,0.00,,,0.00,Wunderground v.1.15,2013-04-09 05:29:00,
2013-04-09 00:35:00,55.7,52.5,29.87,ENE,72,12.0,13.0,89,0.00,,,0.00,Wunderground v.1.15,2013-04-09 05:35:00,
2013-04-09 00:40:00,55.6,52.4,29.87,East,86,12.0,13.0,89,0.00,,,0.00,Wunderground v.1.15,2013-04-09 05:40:00,
2013-04-09 00:46:00,55.6,52.4,29.87,ENE,78,12.0,14.0,89,0.00,,,0.00,Wunderground v.1.15,2013-04-09 05:46:00,
2013-04-09 00:51:00,55.6,52.4,29.87,East,82,11.0,12.0,89,0.00,,,0.00,Wunderground v.1.15,2013-04-09 05:51:00,
2013-04-09 00:57:00,55.5,52.3,29.87,East,82,11.0,13.0,89,0.00,,,0.00,Wunderground v.1.15,2013-04-09 05:57:00,
2013-04-09 01:02:00,55.4,52.2,29.87,East,82,11.0,11.0,89,0.00,,,0.00,Wunderground v.1.15,2013-04-09 06:02:00,
2013-04-09 01:08:00,55.2,52.0,29.87,East,86,10.0,11.0,89,0.00,,,0.00,Wunderground v.1.15,2013-04-09 06:08:00,
2013-04-09 01:13:00,55.1,51.9,29.86,East,99,9.0,11.0,89,0.00,,,0.00,Wunderground v.1.15,2013-04-09 06:13:00,
2013-04-09 01:18:00,55.0,51.8,29.86,East,89,8.0,11.0,89,0.00,,,0.00,Wunderground v.1.15,2013-04-09 06:18:00,
2013-04-09 01:23:00,55.1,51.9,29.86,East,85,8.0,9.0,89,0.00,,,0.00,Wunderground v.1.15,2013-04-09 06:23:00,
2013-04-09 01:28:00,55.2,52.0,29.86,ESE,102,8.0,10.0,89,0.00,,,0.00,Wunderground v.1.15,2013-04-09 06:28:00,
2013-04-09 01:34:00,55.4,52.2,29.86,East,97,7.0,8.0,89,0.00,,,0.00,Wunderground v.1.15,2013-04-09 06:34:00,
2013-04-09 01:39:00,55.5,52.3,29.86,ESE,102,7.0,8.0,89,0.00,,,0.00,Wunderground v.1.15,2013-04-09 06:39:00,
2013-04-09 01:45:00,55.7,52.5,29.86,East,88,6.0,7.0,89,0.00,,,0.00,Wunderground v.1.15,2013-04-09 06:45:00,
2013-04-09 01:51:00,55.6,52.4,29.86,East,85,7.0,8.0,89,0.00,,,0.00,Wunderground v.1.15,2013-04-09 06:51:00,
2013-04-09 01:56:00,55.3,52.1,29.86,East,79,8.0,8.0,89,0.00,,,0.00,Wunderground v.1.15,2013-04-09 06:56:00,
2013-04-09 02:02:00,54.7,51.5,29.85,ENE,75,8.0,9.0,89,0.00,,,0.00,Wunderground v.1.15,2013-04-09 07:02:00,
2013-04-09 02:07:00,54.3,51.4,29.85,East,82,8.0,9.0,90,0.00,,,0.00,Wunderground v.1.15,2013-04-09 07:07:00,
2013-04-09 02:13:00,54.1,51.2,29.84,East,85,7.0,7.0,90,0.00,,,0.00,Wunderground v.1.15,2013-04-09 07:13:00,
2013-04-09 02:18:00,54.1,51.2,29.84,ENE,70,7.0,8.0,90,0.00,,,0.00,Wunderground v.1.15,2013-04-09 07:18:00,
2013-04-09 02:24:00,54.1,51.2,29.84,East,83,7.0,7.0,90,0.00,,,0.00,Wunderground v.1.15,2013-04-09 07:24:00,
2013-04-09 02:30:00,54.1,51.2,29.84,ENE,75,7.0,7.0,90,0.00,,,0.00,Wunderground v.1.15,2013-04-09 07:30:00,
2013-04-09 02:35:00,54.1,51.2,29.84,ENE,78,7.0,7.0,90,0.00,,,0.00,Wunderground v.1.15,2013-04-09 07:35:00,
2013-04-09 02:41:00,54.1,51.2,29.84,ENE,75,7.0,7.0,90,0.00,,,0.00,Wunderground v.1.15,2013-04-09 07:41:00,
2013-04-09 02:47:00,54.1,51.2,29.84,East,85,6.0,7.0,90,0.00,,,0.00,Wunderground v.1.15,2013-04-09 07:47:00,
2013-04-09 02:52:00,54.2,51.6,29.84,East,100,6.0,7.0,91,0.00,,,0.00,Wunderground v.1.15,2013-04-09 07:52:00,
2013-04-09 02:57:00,54.5,51.6,29.83,East,100,6.0,7.0,90,0.00,,,0.00,Wunderground v.1.15,2013-04-09 07:57:00,
2013-04-09 03:03:00,54.7,52.1,29.83,East,96,6.0,7.0,91,0.00,,,0.00,Wunderground v.1.15,2013-04-09 08:03:00,
2013-04-09 03:08:00,54.9,52.0,29.83,East,99,6.0,9.0,90,0.00,,,0.00,Wunderground v.1.15,2013-04-09 08:08:00,
2013-04-09 03:13:00,55.1,52.2,29.83,ESE,104,7.0,9.0,90,0.00,,,0.00,Wunderground v.1.15,2013-04-09 08:13:00,
2013-04-09 03:18:00,55.2,52.3,29.83,East,100,7.0,9.0,90,0.00,,,0.00,Wunderground v.1.15,2013-04-09 08:18:00,
2013-04-09 03:24:00,55.2,52.3,29.84,East,86,6.0,7.0,90,0.00,,,0.00,Wunderground v.1.15,2013-04-09 08:24:00,
2013-04-09 03:30:00,54.6,51.7,29.84,ENE,68,6.0,7.0,90,0.00,,,0.00,Wunderground v.1.15,2013-04-09 08:30:00,
2013-04-09 03:35:00,53.9,51.0,29.84,ENE,72,7.0,11.0,90,0.00,,,0.00,Wunderground v.1.15,2013-04-09 08:35:00,
2013-04-09 03:40:00,53.7,51.1,29.84,ENE,68,8.0,8.0,91,0.00,,,0.00,Wunderground v.1.15,2013-04-09 08:40:00,
2013-04-09 03:46:00,53.7,51.1,29.84,East,101,6.0,8.0,91,0.00,,,0.00,Wunderground v.1.15,2013-04-09 08:46:00,
2013-04-09 03:52:00,54.2,51.6,29.84,ENE,78,6.0,7.0,91,0.00,,,0.00,Wunderground v.1.15,2013-04-09 08:52:00,
2013-04-09 03:57:00,54.6,52.0,29.84,East,91,7.0,7.0,91,0.00,,,0.00,Wunderground v.1.15,2013-04-09 08:57:00,
2013-04-09 04:02:00,55.0,52.4,29.84,East,97,6.0,9.0,91,0.00,,,0.00,Wunderground v.1.15,2013-04-09 09:02:00,
2013-04-09 04:08:00,55.5,52.6,29.84,East,87,6.0,9.0,90,0.00,,,0.00,Wunderground v.1.15,2013-04-09 09:08:00,
2013-04-09 04:13:00,55.5,52.6,29.84,East,86,6.0,7.0,90,0.00,,,0.00,Wunderground v.1.15,2013-04-09 09:13:00,
2013-04-09 04:18:00,55.7,52.8,29.84,East,94,5.0,7.0,90,0.00,,,0.00,Wunderground v.1.15,2013-04-09 09:18:00,
2013-04-09 04:24:00,55.9,53.0,29.84,ESE,110,6.0,8.0,90,0.00,,,0.00,Wunderground v.1.15,2013-04-09 09:24:00,
2013-04-09 04:30:00,56.3,53.4,29.84,ESE,102,8.0,9.0,90,0.00,,,0.00,Wunderground v.1.15,2013-04-09 09:30:00,
2013-04-09 04:35:00,56.5,53.6,29.84,East,97,8.0,10.0,90,0.00,,,0.00,Wunderground v.1.15,2013-04-09 09:35:00,
2013-04-09 04:41:00,56.6,53.7,29.84,ESE,107,7.0,7.0,90,0.00,,,0.00,Wunderground v.1.15,2013-04-09 09:41:00,
2013-04-09 04:47:00,56.7,53.8,29.84,ESE,104,8.0,9.0,90,0.00,,,0.00,Wunderground v.1.15,2013-04-09 09:47:00,
2013-04-09 04:53:00,56.9,54.0,29.84,ESE,110,7.0,8.0,90,0.00,,,0.00,Wunderground v.1.15,2013-04-09 09:53:00,
2013-04-09 04:58:00,57.2,54.3,29.84,ESE,106,7.0,8.0,90,0.00,,,0.00,Wunderground v.1.15,2013-04-09 09:58:00,
2013-04-09 05:03:00,57.3,54.4,29.85,ESE,102,7.0,7.0,90,0.00,,,0.00,Wunderground v.1.15,2013-04-09 10:03:00,
2013-04-09 05:08:00,57.4,54.5,29.84,ESE,109,7.0,8.0,90,0.00,,,0.00,Wunderground v.1.15,2013-04-09 10:08:00,
2013-04-09 05:14:00,57.6,54.7,29.84,East,99,7.0,7.0,90,0.00,,,0.00,Wunderground v.1.15,2013-04-09 10:14:00,
2013-04-09 05:20:00,57.7,54.5,29.84,ESE,102,7.0,7.0,89,0.00,,,0.00,Wunderground v.1.15,2013-04-09 10:20:00,
2013-04-09 05:25:00,57.9,54.7,29.84,East,94,6.0,8.0,89,0.00,,,0.00,Wunderground v.1.15,2013-04-09 10:25:00,
2013-04-09 05:30:00,58.0,54.8,29.84,ESE,107,6.0,6.0,89,0.00,,,0.00,Wunderground v.1.15,2013-04-09 10:30:00,
2013-04-09 05:36:00,58.1,54.9,29.84,East,100,7.0,8.0,89,0.00,,,0.00,Wunderground v.1.15,2013-04-09 10:36:00,
2013-04-09 05:42:00,58.1,54.9,29.84,ESE,106,6.0,6.0,89,0.00,,,0.00,Wunderground v.1.15,2013-04-09 10:42:00,
2013-04-09 05:47:00,58.2,55.0,29.84,East,100,6.0,7.0,89,0.00,,,0.00,Wunderground v.1.15,2013-04-09 10:47:00,
2013-04-09 05:52:00,58.3,55.1,29.84,ESE,107,6.0,7.0,89,0.00,,,0.00,Wunderground v.1.15,2013-04-09 10:52:00,
2013-04-09 05:58:00,58.4,55.2,29.85,ESE,110,7.0,9.0,89,0.00,,,0.00,Wunderground v.1.15,2013-04-09 10:58:00,
2013-04-09 06:03:00,58.6,55.4,29.85,ESE,121,7.0,9.0,89,0.00,,,0.00,Wunderground v.1.15,2013-04-09 11:03:00,
2013-04-09 06:09:00,58.5,55.3,29.84,East,97,7.0,9.0,89,0.00,,,0.00,Wunderground v.1.15,2013-04-09 11:09:00,
2013-04-09 06:15:00,58.3,55.1,29.85,ESE,117,6.0,7.0,89,0.00,,,0.00,Wunderground v.1.15,2013-04-09 11:15:00,
2013-04-09 06:20:00,58.3,55.1,29.85,ESE,106,6.0,7.0,89,0.00,,,0.00,Wunderground v.1.15,2013-04-09 11:20:00,
2013-04-09 06:25:00,58.2,55.0,29.85,ESE,111,7.0,8.0,89,0.00,,,0.00,Wunderground v.1.15,2013-04-09 11:25:00,
2013-04-09 06:31:00,58.0,55.1,29.85,ESE,109,7.0,9.0,90,0.00,,,0.00,Wunderground v.1.15,2013-04-09 11:31:00,
2013-04-09 06:37:00,58.1,55.2,29.85,ESE,103,7.0,9.0,90,0.00,,,0.01,Wunderground v.1.15,2013-04-09 11:37:00,
2013-04-09 06:42:00,58.1,55.2,29.85,ESE,121,8.0,9.0,90,0.00,,,0.01,Wunderground v.1.15,2013-04-09 11:42:00,
2013-04-09 06:48:00,58.0,55.1,29.85,ESE,110,8.0,10.0,90,0.00,,,0.01,Wunderground v.1.15,2013-04-09 11:48:00,
2013-04-09 06:53:00,58.1,55.2,29.85,ESE,115,8.0,10.0,90,0.00,,,0.01,Wunderground v.1.15,2013-04-09 11:53:00,
2013-04-09 06:59:00,58.2,55.3,29.84,ESE,110,8.0,10.0,90,0.00,,,0.01,Wunderground v.1.15,2013-04-09 11:59:00,
2013-04-09 07:04:00,58.2,55.3,29.84,ESE,106,9.0,10.0,90,0.00,,,0.01,Wunderground v.1.15,2013-04-09 12:04:00,
2013-04-09 07:10:00,58.4,55.5,29.84,ESE,121,8.0,8.0,90,0.00,,,0.01,Wunderground v.1.15,2013-04-09 12:10:00,
2013-04-09 07:15:00,58.4,55.5,29.84,ESE,116,8.0,10.0,90,0.00,,,0.01,Wunderground v.1.15,2013-04-09 12:15:00,
2013-04-09 07:21:00,58.4,55.5,29.84,ESE,106,8.0,8.0,90,0.00,,,0.01,Wunderground v.1.15,2013-04-09 12:21:00,
2013-04-09 07:27:00,58.5,55.6,29.84,ESE,107,8.0,9.0,90,0.00,,,0.01,Wunderground v.1.15,2013-04-09 12:27:00,
2013-04-09 07:32:00,58.5,55.6,29.84,ESE,115,7.0,7.0,90,0.00,,,0.01,Wunderground v.1.15,2013-04-09 12:32:00,
2013-04-09 07:38:00,58.8,55.9,29.84,SE,128,7.0,9.0,90,0.00,,,0.01,Wunderground v.1.15,2013-04-09 12:38:00,
2013-04-09 07:44:00,59.2,56.0,29.83,ESE,121,7.0,9.0,89,0.00,,,0.01,Wunderground v.1.15,2013-04-09 12:44:00,
2013-04-09 07:50:00,59.4,56.2,29.83,SE,126,8.0,9.0,89,0.00,,,0.01,Wunderground v.1.15,2013-04-09 12:50:00,
2013-04-09 07:55:00,59.6,56.4,29.83,SE,128,8.0,11.0,89,0.00,,,0.01,Wunderground v.1.15,2013-04-09 12:55:00,
2013-04-09 08:00:00,59.8,56.6,29.83,ESE,113,8.0,8.0,89,0.00,,,0.01,Wunderground v.1.15,2013-04-09 13:00:00,
2013-04-09 08:07:00,60.3,56.7,29.83,SE,142,9.0,11.0,88,0.00,,,0.01,Wunderground v.1.15,2013-04-09 13:07:00,
2013-04-09 08:12:00,60.4,56.8,29.83,SE,140,10.0,10.0,88,0.00,,,0.01,Wunderground v.1.15,2013-04-09 13:12:00,
2013-04-09 08:18:00,60.9,57.0,29.83,SE,135,11.0,13.0,87,0.00,,,0.01,Wunderground v.1.15,2013-04-09 13:18:00,
2013-04-09 08:24:00,61.3,57.4,29.83,SE,130,12.0,14.0,87,0.00,,,0.01,Wunderground v.1.15,2013-04-09 13:24:00,
2013-04-09 08:30:00,61.5,57.3,29.82,SE,138,12.0,12.0,86,0.00,,,0.01,Wunderground v.1.15,2013-04-09 13:30:00,
2013-04-09 08:35:00,61.6,57.0,29.82,SE,135,12.0,12.0,85,0.00,,,0.01,Wunderground v.1.15,2013-04-09 13:35:00,
2013-04-09 08:41:00,61.8,57.2,29.82,SE,143,12.0,13.0,85,0.00,,,0.01,Wunderground v.1.15,2013-04-09 13:41:00,
2013-04-09 08:47:00,62.1,57.5,29.82,SE,137,12.0,14.0,85,0.00,,,0.01,Wunderground v.1.15,2013-04-09 13:47:00,
2013-04-09 08:52:00,62.3,57.7,29.82,SSE,154,12.0,14.0,85,0.00,,,0.01,Wunderground v.1.15,2013-04-09 13:52:00,
2013-04-09 08:58:00,62.8,57.9,29.82,SE,143,11.0,14.0,84,0.00,,,0.01,Wunderground v.1.15,2013-04-09 13:58:00,
2013-04-09 09:04:00,63.2,57.9,29.82,SSE,164,12.0,15.0,83,0.00,,,0.01,Wunderground v.1.15,2013-04-09 14:04:00,
2013-04-09 09:10:00,63.3,58.0,29.82,SSE,162,12.0,13.0,83,0.00,,,0.01,Wunderground v.1.15,2013-04-09 14:10:00,
2013-04-09 09:17:00,63.6,58.3,29.82,SSE,159,11.0,13.0,83,0.00,,,0.01,Wunderground v.1.15,2013-04-09 14:17:00,
2013-04-09 09:22:00,63.8,58.5,29.82,SSE,154,11.0,11.0,83,0.00,,,0.01,Wunderground v.1.15,2013-04-09 14:22:00,
2013-04-09 09:28:00,64.6,59.0,29.82,SSE,161,11.0,13.0,82,0.00,,,0.01,Wunderground v.1.15,2013-04-09 14:28:00,
2013-04-09 09:34:00,65.3,59.3,29.82,South,190,11.0,12.0,81,0.00,,,0.01,Wunderground v.1.15,2013-04-09 14:34:00,
2013-04-09 09:40:00,66.0,59.3,29.82,SSW,204,12.0,19.0,79,0.00,,,0.01,Wunderground v.1.15,2013-04-09 14:40:00,
2013-04-09 09:46:00,66.4,59.7,29.81,SSE,160,13.0,19.0,79,0.00,,,0.01,Wunderground v.1.15,2013-04-09 14:46:00,
2013-04-09 09:51:00,66.6,59.5,29.81,South,183,14.0,18.0,78,0.00,,,0.01,Wunderground v.1.15,2013-04-09 14:51:00,
2013-04-09 09:57:00,67.0,59.5,29.81,SSE,163,15.0,20.0,77,0.00,,,0.01,Wunderground v.1.15,2013-04-09 14:57:00,
2013-04-09 10:03:00,67.3,59.8,29.80,South,173,15.0,16.0,77,0.00,,,0.01,Wunderground v.1.15,2013-04-09 15:03:00,
2013-04-09 10:08:00,67.7,60.2,29.80,SSW,209,14.0,18.0,77,0.00,,,0.01,Wunderground v.1.15,2013-04-09 15:08:00,
2013-04-09 10:13:00,68.1,60.2,29.80,SSW,199,15.0,18.0,76,0.00,,,0.01,Wunderground v.1.15,2013-04-09 15:13:00,
2013-04-09 10:18:00,68.7,60.8,29.80,SSW,202,16.0,21.0,76,0.00,,,0.01,Wunderground v.1.15,2013-04-09 15:18:00,
2013-04-09 10:25:00,69.8,61.1,29.79,South,173,16.0,22.0,74,0.00,,,0.01,Wunderground v.1.15,2013-04-09 15:25:00,
2013-04-09 10:31:00,70.9,61.4,29.79,South,190,21.0,32.0,72,0.00,,,0.01,Wunderground v.1.15,2013-04-09 15:31:00,
2013-04-09 10:37:00,71.8,61.9,29.79,SSW,202,24.0,36.0,71,0.00,,,0.01,Wunderground v.1.15,2013-04-09 15:37:00,
2013-04-09 10:43:00,71.9,61.6,29.78,SW,215,25.0,31.0,70,0.00,,,0.01,Wunderground v.1.15,2013-04-09 15:43:00,
2013-04-09 10:49:00,72.9,62.5,29.78,SW,228,25.0,31.0,70,0.00,,,0.01,Wunderground v.1.15,2013-04-09 15:49:00,
2013-04-09 10:54:00,73.5,61.9,29.78,SSW,211,25.0,29.0,67,0.00,,,0.01,Wunderground v.1.15,2013-04-09 15:54:00,
2013-04-09 11:00:00,73.7,61.6,29.78,SW,220,26.0,28.0,66,0.00,,,0.01,Wunderground v.1.15,2013-04-09 16:00:00,
2013-04-09 11:06:00,73.6,61.1,29.78,SW,219,27.0,35.0,65,0.00,,,0.01,Wunderground v.1.15,2013-04-09 16:06:00,
2013-04-09 11:12:00,73.6,61.5,29.78,SW,215,29.0,29.0,66,0.00,,,0.01,Wunderground v.1.15,2013-04-09 16:12:00,
2013-04-09 11:17:00,73.9,61.0,29.77,SW,230,28.0,32.0,64,0.00,,,0.01,Wunderground v.1.15,2013-04-09 16:17:00,
2013-04-09 11:23:00,74.1,61.1,29.77,SW,223,30.0,30.0,64,0.00,,,0.01,Wunderground v.1.15,2013-04-09 16:23:00,
2013-04-09 11:29:00,74.4,61.0,29.77,WSW,239,28.0,35.0,63,0.00,,,0.01,Wunderground v.1.15,2013-04-09 16:29:00,
2013-04-09 11:35:00,74.4,61.0,29.77,SW,215,28.0,31.0,63,0.00,,,0.01,Wunderground v.1.15,2013-04-09 16:35:00,
2013-04-09 11:40:00,74.3,61.3,29.77,SW,220,29.0,31.0,64,0.00,,,0.01,Wunderground v.1.15,2013-04-09 16:40:00,
2013-04-09 11:45:00,74.3,60.9,29.77,SW,220,28.0,31.0,63,0.00,,,0.01,Wunderground v.1.15,2013-04-09 16:45:00,
2013-04-09 11:50:00,74.4,61.0,29.77,WSW,246,28.0,32.0,63,0.00,,,0.01,Wunderground v.1.15,2013-04-09 16:50:00,
2013-04-09 11:56:00,74.3,60.4,29.77,SSW,206,29.0,32.0,62,0.00,,,0.01,Wunderground v.1.15,2013-04-09 16:56:00,
2013-04-09 12:01:00,74.3,60.4,29.77,SSW,213,29.0,31.0,62,0.00,,,0.01,Wunderground v.1.15,2013-04-09 17:01:00,
2013-04-09 12:07:00,74.1,60.2,29.77,SW,216,27.0,37.0,62,0.00,,,0.01,Wunderground v.1.15,2013-04-09 17:07:00,
2013-04-09 12:13:00,73.9,59.6,29.77,SW,220,28.0,35.0,61,0.00,,,0.01,Wunderground v.1.15,2013-04-09 17:13:00,
2013-04-09 12:19:00,73.7,59.9,29.77,SW,231,28.0,35.0,62,0.00,,,0.01,Wunderground v.1.15,2013-04-09 17:19:00,
2013-04-09 12:25:00,74.0,59.2,29.77,WSW,239,29.0,31.0,60,0.00,,,0.01,Wunderground v.1.15,2013-04-09 17:25:00,
2013-04-09 12:31:00,73.5,58.8,29.78,SW,233,31.0,33.0,60,0.00,,,0.01,Wunderground v.1.15,2013-04-09 17:31:00,
2013-04-09 12:37:00,73.6,59.3,29.78,SW,232,29.0,33.0,61,0.00,,,0.01,Wunderground v.1.15,2013-04-09 17:37:00,
2013-04-09 12:43:00,73.9,59.6,29.78,SW,235,28.0,29.0,61,0.00,,,0.01,Wunderground v.1.15,2013-04-09 17:43:00,
2013-04-09 12:49:00,73.5,59.2,29.78,WSW,242,29.0,36.0,61,0.00,,,0.01,Wunderground v.1.15,2013-04-09 17:49:00,
2013-04-09 12:54:00,73.5,58.8,29.78,WSW,237,30.0,32.0,60,0.00,,,0.01,Wunderground v.1.15,2013-04-09 17:54:00,
2013-04-09 13:00:00,73.5,59.7,29.78,SW,222,29.0,29.0,62,0.00,,,0.01,Wunderground v.1.15,2013-04-09 18:00:00,
2013-04-09 13:06:00,73.1,59.8,29.78,WSW,248,28.0,35.0,63,0.00,,,0.01,Wunderground v.1.15,2013-04-09 18:06:00,
2013-04-09 13:12:00,73.3,59.5,29.78,SW,220,28.0,32.0,62,0.00,,,0.01,Wunderground v.1.15,2013-04-09 18:12:00,
2013-04-09 13:17:00,73.8,59.5,29.78,SW,232,29.0,34.0,61,0.00,,,0.01,Wunderground v.1.15,2013-04-09 18:17:00,
2013-04-09 13:22:00,74.5,60.6,29.77,SW,229,30.0,30.0,62,0.00,,,0.01,Wunderground v.1.15,2013-04-09 18:22:00,
2013-04-09 13:27:00,75.7,60.8,29.77,SSW,213,28.0,30.0,60,0.00,,,0.01,Wunderground v.1.15,2013-04-09 18:27:00,
2013-04-09 13:32:00,76.0,60.2,29.77,WSW,240,27.0,29.0,58,0.00,,,0.01,Wunderground v.1.15,2013-04-09 18:32:00,
2013-04-09 13:38:00,76.1,60.7,29.77,SW,222,28.0,31.0,59,0.00,,,0.01,Wunderground v.1.15,2013-04-09 18:38:00,
2013-04-09 13:44:00,76.3,60.9,29.77,SW,232,27.0,32.0,59,0.00,,,0.01,Wunderground v.1.15,2013-04-09 18:44:00,
2013-04-09 13:49:00,76.3,59.9,29.77,SW,224,27.0,32.0,57,0.00,,,0.01,Wunderground v.1.15,2013-04-09 18:49:00,
2013-04-09 13:54:00,76.3,59.9,29.77,WSW,239,27.0,32.0,57,0.00,,,0.01,Wunderground v.1.15,2013-04-09 18:54:00,
2013-04-09 14:00:00,77.1,60.7,29.77,SW,229,26.0,26.0,57,0.00,,,0.01,Wunderground v.1.15,2013-04-09 19:00:00,
2013-04-09 14:06:00,77.6,59.1,29.76,SW,229,26.0,31.0,53,0.00,,,0.01,Wunderground v.1.15,2013-04-09 19:06:00,
2013-04-09 14:12:00,77.6,59.6,29.76,SW,227,27.0,28.0,54,0.00,,,0.01,Wunderground v.1.15,2013-04-09 19:12:00,
2013-04-09 14:17:00,77.4,60.0,29.76,WSW,237,26.0,28.0,55,0.00,,,0.01,Wunderground v.1.15,2013-04-09 19:17:00,
2013-04-09 14:22:00,77.8,59.3,29.76,WSW,244,25.0,31.0,53,0.00,,,0.01,Wunderground v.1.15,2013-04-09 19:22:00,
2013-04-09 14:27:00,77.3,59.9,29.76,WSW,243,25.0,31.0,55,0.00,,,0.01,Wunderground v.1.15,2013-04-09 19:27:00,
2013-04-09 14:33:00,77.2,60.8,29.75,SW,228,25.0,27.0,57,0.00,,,0.01,Wunderground v.1.15,2013-04-09 19:33:00,
2013-04-09 14:38:00,77.5,60.6,29.75,SW,222,25.0,29.0,56,0.00,,,0.01,Wunderground v.1.15,2013-04-09 19:38:00,
2013-04-09 14:44:00,78.0,60.5,29.75,SW,229,25.0,27.0,55,0.00,,,0.01,Wunderground v.1.15,2013-04-09 19:44:00,
2013-04-09 14:49:00,77.2,59.8,29.75,WSW,239,25.0,27.0,55,0.00,,,0.01,Wunderground v.1.15,2013-04-09 19:49:00,
2013-04-09 14:55:00,77.8,60.3,29.75,WSW,246,25.0,30.0,55,0.00,,,0.01,Wunderground v.1.15,2013-04-09 19:55:00,
2013-04-09 15:00:00,78.1,60.6,29.75,WSW,237,27.0,29.0,55,0.00,,,0.01,Wunderground v.1.15,2013-04-09 20:00:00,
2013-04-09 15:06:00,77.8,60.3,29.75,SW,216,26.0,30.0,55,0.00,,,0.01,Wunderground v.1.15,2013-04-09 20:06:00,
2013-04-09 15:12:00,78.4,60.9,29.75,WSW,239,25.0,25.0,55,0.00,,,0.01,Wunderground v.1.15,2013-04-09 20:12:00,
2013-04-09 15:17:00,78.6,60.0,29.75,WSW,245,24.0,31.0,53,0.00,,,0.01,Wunderground v.1.15,2013-04-09 20:17:00,
2013-04-09 15:23:00,78.4,60.4,29.75,WSW,244,25.0,28.0,54,0.00,,,0.01,Wunderground v.1.15,2013-04-09 20:23:00,
2013-04-09 15:28:00,78.6,60.6,29.75,SW,222,25.0,28.0,54,0.00,,,0.01,Wunderground v.1.15,2013-04-09 20:28:00,
2013-04-09 15:33:00,78.0,60.5,29.75,SW,230,24.0,25.0,55,0.00,,,0.01,Wunderground v.1.15,2013-04-09 20:33:00,
2013-04-09 15:38:00,77.8,59.8,29.75,WSW,247,23.0,25.0,54,0.00,,,0.01,Wunderground v.1.15,2013-04-09 20:38:00,
2013-04-09 15:43:00,78.1,60.6,29.75,WSW,239,23.0,27.0,55,0.00,,,0.01,Wunderground v.1.15,2013-04-09 20:43:00,
2013-04-09 15:49:00,77.9,60.4,29.75,WSW,247,22.0,27.0,55,0.00,,,0.01,Wunderground v.1.15,2013-04-09 20:49:00,
2013-04-09 15:55:00,77.9,59.9,29.75,WSW,244,24.0,24.0,54,0.00,,,0.01,Wunderground v.1.15,2013-04-09 20:55:00,
2013-04-09 16:01:00,77.9,59.9,29.75,SW,232,23.0,23.0,54,0.00,,,0.01,Wunderground v.1.15,2013-04-09 21:01:00,
2013-04-09 16:06:00,77.7,59.7,29.75,WSW,239,23.0,26.0,54,0.00,,,0.01,Wunderground v.1.15,2013-04-09 21:06:00,
2013-04-09 16:11:00,77.4,60.0,29.75,SW,231,22.0,23.0,55,0.00,,,0.01,Wunderground v.1.15,2013-04-09 21:11:00,
2013-04-09 16:17:00,77.9,60.4,29.75,WSW,239,22.0,26.0,55,0.00,,,0.01,Wunderground v.1.15,2013-04-09 21:17:00,
2013-04-09 16:22:00,77.6,60.2,29.75,SW,228,21.0,24.0,55,0.00,,,0.01,Wunderground v.1.15,2013-04-09 21:22:00,
2013-04-09 16:28:00,77.6,60.2,29.75,SW,233,21.0,26.0,55,0.00,,,0.01,Wunderground v.1.15,2013-04-09 21:28:00,
2013-04-09 16:34:00,77.7,59.7,29.75,WSW,251,21.0,24.0,54,0.00,,,0.01,Wunderground v.1.15,2013-04-09 21:34:00,
2013-04-09 16:40:00,77.8,60.3,29.75,SW,227,20.0,22.0,55,0.00,,,0.01,Wunderground v.1.15,2013-04-09 21:40:00,
2013-04-09 16:45:00,77.4,60.5,29.76,SW,230,20.0,24.0,56,0.00,,,0.01,Wunderground v.1.15,2013-04-09 21:45:00,
2013-04-09 16:50:00,77.2,60.3,29.75,SW,228,20.0,24.0,56,0.00,,,0.01,Wunderground v.1.15,2013-04-09 21:50:00,
2013-04-09 16:55:00,77.2,59.8,29.76,WSW,239,20.0,24.0,55,0.00,,,0.01,Wunderground v.1.15,2013-04-09 21:55:00,
2013-04-09 17:00:00,77.1,60.2,29.76,WSW,239,21.0,22.0,56,0.00,,,0.01,Wunderground v.1.15,2013-04-09 22:00:00,
2013-04-09 17:06:00,77.1,61.2,29.76,SW,229,20.0,23.0,58,0.00,,,0.01,Wunderground v.1.15,2013-04-09 22:06:00,
2013-04-09 17:11:00,77.0,60.6,29.76,WSW,239,19.0,23.0,57,0.00,,,0.01,Wunderground v.1.15,2013-04-09 22:11:00,
2013-04-09 17:17:00,77.0,61.1,29.76,WSW,239,21.0,23.0,58,0.00,,,0.01,Wunderground v.1.15,2013-04-09 22:17:00,
2013-04-09 17:23:00,77.1,61.2,29.77,WSW,237,20.0,21.0,58,0.00,,,0.01,Wunderground v.1.15,2013-04-09 22:23:00,
2013-04-09 17:28:00,76.8,61.4,29.77,SW,217,19.0,22.0,59,0.00,,,0.01,Wunderground v.1.15,2013-04-09 22:28:00,
2013-04-09 17:34:00,77.2,61.8,29.77,SW,230,19.0,21.0,59,0.00,,,0.01,Wunderground v.1.15,2013-04-09 22:34:00,
2013-04-09 17:40:00,76.7,61.8,29.77,WSW,237,19.0,19.0,60,0.00,,,0.01,Wunderground v.1.15,2013-04-09 22:40:00,
2013-04-09 17:45:00,76.4,62.0,29.77,SW,236,20.0,22.0,61,0.00,,,0.01,Wunderground v.1.15,2013-04-09 22:45:00,
2013-04-09 17:51:00,76.4,62.0,29.77,SW,236,21.0,21.0,61,0.00,,,0.01,Wunderground v.1.15,2013-04-09 22:51:00,
2013-04-09 17:56:00,76.2,62.2,29.78,SW,232,21.0,23.0,62,0.00,,,0.01,Wunderground v.1.15,2013-04-09 22:56:00,
2013-04-09 18:02:00,76.1,62.6,29.78,SW,229,20.0,20.0,63,0.00,,,0.01,Wunderground v.1.15,2013-04-09 23:02:00,
2013-04-09 18:07:00,75.9,61.9,29.77,WSW,237,19.0,23.0,62,0.00,,,0.01,Wunderground v.1.15,2013-04-09 23:07:00,
2013-04-09 18:12:00,75.5,62.0,29.78,SW,233,19.0,19.0,63,0.00,,,0.01,Wunderground v.1.15,2013-04-09 23:12:00,
2013-04-09 18:17:00,75.4,61.9,29.78,SW,233,19.0,21.0,63,0.00,,,0.01,Wunderground v.1.15,2013-04-09 23:17:00,
2013-04-09 18:23:00,75.0,62.0,29.78,SW,220,17.0,18.0,64,0.00,,,0.01,Wunderground v.1.15,2013-04-09 23:23:00,
2013-04-09 18:29:00,74.6,62.1,29.78,SW,227,17.0,18.0,65,0.00,,,0.01,Wunderground v.1.15,2013-04-09 23:29:00,
2013-04-09 18:35:00,74.3,61.8,29.78,SW,232,16.0,17.0,65,0.00,,,0.01,Wunderground v.1.15,2013-04-09 23:35:00,
2013-04-09 18:40:00,74.1,61.6,29.78,SW,235,15.0,15.0,65,0.00,,,0.01,Wunderground v.1.15,2013-04-09 23:40:00,
2013-04-09 18:45:00,73.9,61.8,29.78,WSW,242,14.0,15.0,66,0.00,,,0.01,Wunderground v.1.15,2013-04-09 23:45:00,
2013-04-09 18:50:00,73.7,61.6,29.78,SW,232,13.0,13.0,66,0.00,,,0.01,Wunderground v.1.15,2013-04-09 23:50:00,
2013-04-09 18:56:00,73.4,61.8,29.78,WSW,237,12.0,13.0,67,0.00,,,0.01,Wunderground v.1.15,2013-04-09 23:56:00,
2013-04-09 19:02:00,73.0,61.4,29.79,SW,233,10.0,11.0,67,0.00,,,0.01,Wunderground v.1.15,2013-04-10 00:02:00,
2013-04-09 19:07:00,72.7,61.5,29.79,SW,232,9.0,11.0,68,0.00,,,0.01,Wunderground v.1.15,2013-04-10 00:07:00,
2013-04-09 19:12:00,72.3,61.1,29.79,SW,222,9.0,9.0,68,0.00,,,0.01,Wunderground v.1.15,2013-04-10 00:12:00,
2013-04-09 19:18:00,71.6,60.9,29.79,SW,236,9.0,9.0,69,0.00,,,0.01,Wunderground v.1.15,2013-04-10 00:18:00,
2013-04-09 19:23:00,71.1,60.8,29.79,SW,231,8.0,8.0,70,0.00,,,0.01,Wunderground v.1.15,2013-04-10 00:23:00,
2013-04-09 19:29:00,70.7,60.8,29.79,SW,220,7.0,9.0,71,0.00,,,0.01,Wunderground v.1.15,2013-04-10 00:29:00,
2013-04-09 19:34:00,70.3,60.4,29.79,SW,216,7.0,7.0,71,0.00,,,0.01,Wunderground v.1.15,2013-04-10 00:34:00,
2013-04-09 19:40:00,70.0,60.6,29.79,SSW,213,6.0,6.0,72,0.00,,,0.01,Wunderground v.1.15,2013-04-10 00:40:00,
2013-04-09 19:46:00,70.1,61.0,29.79,SSW,196,5.0,6.0,73,0.00,,,0.01,Wunderground v.1.15,2013-04-10 00:46:00,
2013-04-09 19:52:00,70.4,60.9,29.79,SSW,198,5.0,6.0,72,0.00,,,0.01,Wunderground v.1.15,2013-04-10 00:52:00,
2013-04-09 19:57:00,70.6,61.1,29.79,SSW,206,5.0,6.0,72,0.00,,,0.01,Wunderground v.1.15,2013-04-10 00:57:00,
2013-04-09 20:02:00,70.6,61.1,29.79,SSW,199,4.0,6.0,72,0.00,,,0.01,Wunderground v.1.15,2013-04-10 01:02:00,
2013-04-09 20:08:00,70.6,61.1,29.79,South,179,4.0,6.0,72,0.00,,,0.01,Wunderground v.1.15,2013-04-10 01:08:00,
2013-04-09 20:14:00,69.9,60.5,29.79,SSE,154,5.0,5.0,72,0.00,,,0.01,Wunderground v.1.15,2013-04-10 01:14:00,
2013-04-09 20:20:00,69.3,60.3,29.79,SSE,161,4.0,4.0,73,0.00,,,0.01,Wunderground v.1.15,2013-04-10 01:20:00,
2013-04-09 20:26:00,69.2,60.6,29.79,South,170,4.0,5.0,74,0.00,,,0.01,Wunderground v.1.15,2013-04-10 01:26:00,
2013-04-09 20:31:00,69.4,60.8,29.79,South,175,4.0,5.0,74,0.00,,,0.01,Wunderground v.1.15,2013-04-10 01:31:00,
2013-04-09 20:37:00,69.1,60.5,29.79,SSE,149,4.0,5.0,74,0.00,,,0.01,Wunderground v.1.15,2013-04-10 01:37:00,
2013-04-09 20:43:00,68.6,60.4,29.79,SSE,167,4.0,4.0,75,0.00,,,0.01,Wunderground v.1.15,2013-04-10 01:43:00,
2013-04-09 20:48:00,68.2,60.0,29.79,SSE,163,4.0,6.0,75,0.00,,,0.01,Wunderground v.1.15,2013-04-10 01:48:00,
2013-04-09 20:54:00,67.9,60.1,29.80,South,175,5.0,6.0,76,0.00,,,0.01,Wunderground v.1.15,2013-04-10 01:54:00,
2013-04-09 20:59:00,67.8,60.0,29.80,SSE,159,6.0,6.0,76,0.00,,,0.01,Wunderground v.1.15,2013-04-10 01:59:00,
2013-04-09 21:04:00,67.6,59.8,29.80,South,175,5.0,6.0,76,0.00,,,0.01,Wunderground v.1.15,2013-04-10 02:04:00,
2013-04-09 21:10:00,67.2,59.7,29.80,SSE,151,5.0,5.0,77,0.00,,,0.01,Wunderground v.1.15,2013-04-10 02:10:00,
2013-04-09 21:15:00,66.9,59.5,29.80,SSW,204,4.0,5.0,77,0.00,,,0.01,Wunderground v.1.15,2013-04-10 02:15:00,
2013-04-09 21:21:00,67.0,59.9,29.81,South,173,4.0,5.0,78,0.00,,,0.01,Wunderground v.1.15,2013-04-10 02:21:00,
2013-04-09 21:26:00,67.2,59.7,29.81,South,190,4.0,5.0,77,0.00,,,0.01,Wunderground v.1.15,2013-04-10 02:26:00,
2013-04-09 21:32:00,67.5,60.0,29.81,SSE,163,4.0,4.0,77,0.00,,,0.01,Wunderground v.1.15,2013-04-10 02:32:00,
2013-04-09 21:37:00,67.4,59.6,29.81,SSE,152,3.0,4.0,76,0.00,,,0.01,Wunderground v.1.15,2013-04-10 02:37:00,
2013-04-09 21:43:00,66.9,59.5,29.81,SSE,151,4.0,4.0,77,0.00,,,0.01,Wunderground v.1.15,2013-04-10 02:43:00,
2013-04-09 21:49:00,66.2,58.8,29.81,SSE,156,4.0,5.0,77,0.00,,,0.01,Wunderground v.1.15,2013-04-10 02:49:00,
2013-04-09 21:55:00,65.6,58.6,29.80,South,171,5.0,5.0,78,0.00,,,0.01,Wunderground v.1.15,2013-04-10 02:55:00,
2013-04-09 22:00:00,65.3,58.6,29.81,South,175,4.0,4.0,79,0.00,,,0.01,Wunderground v.1.15,2013-04-10 03:00:00,
2013-04-09 22:06:00,65.3,59.0,29.81,SSE,158,4.0,4.0,80,0.00,,,0.01,Wunderground v.1.15,2013-04-10 03:06:00,
2013-04-09 22:11:00,65.4,58.7,29.80,SSE,156,3.0,3.0,79,0.00,,,0.01,Wunderground v.1.15,2013-04-10 03:11:00,
2013-04-09 22:17:00,65.1,58.8,29.80,SSE,148,3.0,3.0,80,0.00,,,0.01,Wunderground v.1.15,2013-04-10 03:17:00,
2013-04-09 22:23:00,63.1,56.8,29.81,NE,44,2.0,6.0,80,0.00,,,0.01,Wunderground v.1.15,2013-04-10 03:23:00,
2013-04-09 22:28:00,57.4,49.5,29.81,ENE,57,6.0,13.0,75,0.00,,,0.01,Wunderground v.1.15,2013-04-10 03:28:00,
2013-04-09 22:34:00,54.2,48.5,29.81,NE,43,12.0,17.0,81,0.00,,,0.01,Wunderground v.1.15,2013-04-10 03:34:00,
2013-04-09 22:39:00,52.4,47.4,29.81,NE,50,15.0,22.0,83,0.00,,,0.01,Wunderground v.1.15,2013-04-10 03:39:00,
2013-04-09 22:45:00,51.3,46.9,29.82,NE,48,15.0,18.0,85,0.00,,,0.01,Wunderground v.1.15,2013-04-10 03:45:00,
2013-04-09 22:50:00,50.9,46.9,29.82,ENE,61,14.0,14.0,86,0.00,,,0.01,Wunderground v.1.15,2013-04-10 03:50:00,
2013-04-09 22:56:00,51.0,47.0,29.82,ENE,68,14.0,16.0,86,0.00,,,0.01,Wunderground v.1.15,2013-04-10 03:56:00,
2013-04-09 23:00:00,50.9,46.9,29.82,ENE,57,12.0,12.0,86,0.00,,,0.01,Wunderground v.1.15,2013-04-10 04:00:00,
2013-04-09 23:01:00,50.9,46.9,29.82,NE,50,12.0,12.0,86,0.00,,,0.01,Wunderground v.1.15,2013-04-10 04:01:00,
2013-04-09 23:02:00,50.9,46.9,29.82,ENE,66,11.0,12.0,86,0.00,,,0.01,Wunderground v.1.15,2013-04-10 04:02:00,
2013-04-09 23:08:00,50.4,46.4,29.82,ENE,57,12.0,14.0,86,0.00,,,0.01,Wunderground v.1.15,2013-04-10 04:08:00,
2013-04-09 23:09:00,50.3,46.3,29.82,NE,54,12.0,16.0,86,0.00,,,0.01,Wunderground v.1.15,2013-04-10 04:09:00,
2013-04-09 23:14:00,50.0,46.0,29.82,NE,54,15.0,16.0,86,0.00,,,0.01,Wunderground v.1.15,2013-04-10 04:14:00,
2013-04-09 23:19:00,49.9,46.2,29.82,ENE,62,15.0,19.0,87,0.00,,,0.01,Wunderground v.1.15,2013-04-10 04:19:00,
2013-04-09 23:24:00,49.8,46.1,29.82,ENE,64,17.0,19.0,87,0.00,,,0.01,Wunderground v.1.15,2013-04-10 04:24:00,
2013-04-09 23:29:00,49.6,45.6,29.82,ENE,68,17.0,19.0,86,0.00,,,0.01,Wunderground v.1.15,2013-04-10 04:29:00,
2013-04-09 23:35:00,49.3,45.6,29.82,ENE,66,15.0,18.0,87,0.00,,,0.01,Wunderground v.1.15,2013-04-10 04:35:00,
2013-04-09 23:41:00,49.1,45.4,29.81,ENE,57,15.0,15.0,87,0.00,,,0.01,Wunderground v.1.15,2013-04-10 04:41:00,
2013-04-09 23:46:00,49.1,45.4,29.81,ENE,68,15.0,17.0,87,0.00,,,0.01,Wunderground v.1.15,2013-04-10 04:46:00,
2013-04-09 23:52:00,49.0,45.3,29.81,ENE,71,15.0,15.0,87,0.00,,,0.01,Wunderground v.1.15,2013-04-10 04:52:00,
2013-04-09 23:57:00,48.9,45.5,29.81,ENE,72,15.0,16.0,88,0.00,,,0.01,Wunderground v.1.15,2013-04-10 04:57:00,